Location: Utrecht
(52.0907°N, 5.1214°E)
Time: 22:36:32
(UTC+02:00)

ESTCUBE 1 - Pass Details

Date: 01 July 2022
Orbit: 646 x 657 km, 97.9° (Epoch: 13 August)

Event Time Altitude Azimuth Distance (km) Brightness Sun altitude
Exits shadow 23:34:43 12° 165° (SSE) 1,901 ? -9.8°
Maximum altitude 23:38:50 89° 255° (WSW) 656 ? -10.1°
Drops below altitude 10° 23:43:21 10° 346° (NNW) 2,065 ? -10.4°
Sets 23:45:35 0° 346° (NNW) 2,982 ? -10.5°
